Regional Weather Roundup
Issued by NWS Kansas City/Pleasant Hill, MO

Home | Current Version | Previous Version | Text Only | Print | Product List | Glossary On
Versions: 1 2 3 4 5 6 7 8 9 10 11 12 13 14 15 16 17 18 19 20 21 22 23 24 25 26 27 28 29 30 31 32 33 34 35 36 37 38 39 40 41 42 43 44 45 46 47 48 49 50
000
ASUS43 KEAX 040211
RWREAX

WEATHER ROUNDUP FOR EASTERN KANSAS AND NORTHWEST MISSOURI
NATIONAL WEATHER SERVICE KANSAS CITY/PLEASANT HILL MO
900 PM CDT SUN MAY 03 2015

KSZ040-057-103>105-MOZ028-029-037-043-040300-
...KANSAS CITY METROPOLITAN AREA...

CITY           SKY/WX    TMP DP  RH WIND       PRES   REMARKS
K.C. INTL      MOCLDY    74  58  57 S15G24    29.85R
K.C. DOWNTOWN  PTCLDY    76  58  53 S14       29.85R
LEES SUMMIT    MOCLDY    74  58  57 S14G22    29.88R
OLATHE - IXD   MOCLDY    73  57  57 S14       29.88R
OLATHE - OJC   PTCLDY    73  58  59 S13       29.87R
LAWRENCE       MOCLDY    73  58  59 S12       29.85R

$$

MOZ001>008-011>017-020>025-030>033-038>040-044>046-053-054-040300-
...NORTHERN AND CENTRAL MISSOURI...

CITY           SKY/WX    TMP DP  RH WIND       PRES   REMARKS
ST. JOSEPH     MOCLDY    76  59  55 S10       29.81R
MOSBY          MOCLDY    75  57  53 S10       29.86R
WARRENSBURG    MOCLDY    72  55  56 S9        29.89R
WHITEMAN AFB   MOCLDY    72  58  62 SW14      29.88R
CLINTON        MOCLDY    73  59  60 S8        29.91S
SEDALIA        PTCLDY    70  56  61 S10       29.92R
WARSAW         NOT AVBL
MARSHALL       PTCLDY    75  59  57 S8        29.91R
CHILLICOTHE      N/A     74  58  57 S6        29.86S
MOBERLY        CLEAR     73  54  49 S8        29.91R
KIRKSVILLE     CLEAR     74  58  57 S12       29.87S

$$

MOZ041-047>049-056>058-063>065-088>090-097-040300-
...EASTERN AND SOUTHERN MISSOURI...

CITY           SKY/WX    TMP DP  RH WIND       PRES   REMARKS
ST. LOUIS INTL LGT RAIN  78  50  37 S8        29.97R
SPIRIT OF STL  CLOUDY    74  51  44 S7        29.94R
COLUMBIA       PTCLDY    70  56  61 S7        29.92R
JEFFERSON CITY PTCLDY    76  54  46 SE5       29.92R
MEXICO         PTCLDY    75  59  57 S7        29.91R
HANNIBAL       PTCLDY    72  50  46 S6        29.91R
ROLLA          PTCLDY    70  53  54 S7        29.95R
LEBANON        CLOUDY    72  52  49 S6        29.98R
OSAGE BEACH    MOCLDY    73  54  49 S6        29.94S
SPRINGFIELD    CLOUDY    69  55  60 S8        29.96R
BRANSON        MOCLDY    72  55  56 S6        30.00R
NEVADA         PTCLDY    66  59  77 S8        29.93S
JOPLIN         MOCLDY    69  57  65 S7        29.95R
WEST PLAINS    PTCLDY    70  53  54 S7        30.02R

$$

IAZ060-094-KSZ022-034>040-054-083-096-NEZ052-066-093-040300-
...KANSAS...SOUTHEAST NEBRASKA AND IOWA...

CITY           SKY/WX    TMP DP  RH WIND       PRES   REMARKS
TOPEKA         PTCLDY    77  57  50 S10       29.83R
MANHATTAN      PTCLDY    77  56  48 S12       29.79R
EMPORIA        CLEAR     71  56  58 S13       29.86R
CHANUTE        PTCLDY    70  58  65 S12       29.89R
WICHITA        MOCLDY    73  57  57 S15       29.85R
OMAHA          CLOUDY    76  58  53 NW13G23   29.77R THUNDER
LINCOLN        MOCLDY    70  56  61 SE13      29.78R
FALLS CITY     CLOUDY    78  55  44 S8        29.78R
LAMONI         CLOUDY    74  58  57 S14       29.80S
DES MOINES     CLOUDY    75  58  55 S5        29.78R

$$



USA.gov is the U.S. government's official web portal to all federal, state and local government web resources and services.